Location: *
(46.3500°N, 10.9000°E)
Time: 19:46:16
(UTC+00:00)

Transit 2A Rocket - Visible Passes

Search period start: 19 April 2021 00:00
Search period end: 29 April 2021 00:00
Orbit: 594 x 908 km, 66.7° (Epoch: 19 April)

Date Brightness Start Highest point End Pass type
(mag) Time Alt. Az. Time Alt. Az. Time Alt. Az.
19 Apr 7.3 00:17:55 10° NW 00:18:04 11° NW 00:18:04 11° NW visible
19 Apr 6.5 21:53:07 10° N 21:56:30 22° NE 21:56:30 22° NE visible
19 Apr 6.8 23:35:04 10° NW 23:36:23 19° NW 23:36:23 19° NW visible
20 Apr 6.9 21:11:02 10° N 21:13:42 15° NE 21:14:51 14° NE visible
20 Apr 6.3 22:52:24 10° NNW 22:54:44 31° NNW 22:54:44 31° NNW visible
21 Apr 7.2 20:29:34 10° NNE 20:30:37 11° NNE 20:31:42 10° NE visible
21 Apr 5.9 22:09:54 10° NNW 22:13:07 38° N 22:13:07 38° N visible
21 Apr 7.3 23:52:53 10° WNW 23:53:00 10° WNW 23:53:00 10° WNW visible
22 Apr 6.0 21:27:32 10° NNW 21:31:28 29° NE 21:31:30 29° NE visible
22 Apr 6.7 23:09:49 10° NW 23:11:23 20° WNW 23:11:23 20° WNW visible
23 Apr 6.5 20:45:18 10° N 20:48:35 20° NE 20:49:55 18° ENE visible
23 Apr 5.9 22:27:03 10° NW 22:29:48 37° NW 22:29:48 37° NW visible
24 Apr 7.0 20:03:20 10° N 20:05:35 14° NE 20:07:55 10° ENE visible
24 Apr 5.1 21:44:28 10° NNW 21:48:16 57° N 21:48:16 57° N visible
24 Apr 7.4 23:28:06 10° WNW 23:28:09 10° WNW 23:28:09 10° WNW visible
25 Apr 5.4 21:01:59 10° NNW 21:06:14 40° NE 21:06:44 38° ENE visible
25 Apr 6.7 22:44:42 10° NW 22:46:37 21° WNW 22:46:37 21° WNW visible
26 Apr 6.2 20:19:40 10° NNW 20:23:25 26° NE 20:25:14 20° ENE visible
26 Apr 5.6 22:01:46 10° NW 22:05:07 42° WNW 22:05:07 42° WNW visible
27 Apr 6.7 19:37:30 10° N 19:40:30 17° NE 19:43:37 10° E visible
27 Apr 4.5 21:19:03 10° NW 21:23:36 88° WSW 21:23:38 87° SSW visible
28 Apr 7.0 18:55:41 10° N 18:57:28 12° NNE 18:59:18 10° NE visible
28 Apr 5.0 20:36:31 10° NNW 20:40:57 55° NE 20:42:12 42° ESE visible
28 Apr 6.7 22:19:45 10° WNW 22:22:06 19° W 22:22:06 19° W visible
